Location: Bijele Vode
(45.2833°N, 16.2000°E)
Time: 19:52:57
(UTC+00:00)

Ariane Rocket - Visible Passes

Search period start: 26 January 2021 00:00
Search period end: 05 February 2021 00:00
Orbit: 761 x 769 km, 98.7° (Epoch: 25 January)

Date Brightness Start Highest point End Pass type
(mag) Time Alt. Az. Time Alt. Az. Time Alt. Az.
26 Jan 4.8 17:46:02 16° NNE 17:46:02 16° NNE 17:47:23 10° NNE visible
26 Jan 5.5 19:26:14 15° NNW 19:26:14 15° NNW 19:27:04 10° NNW visible
27 Jan 5.0 17:08:38 10° NE 17:08:38 10° NE 17:08:54 10° NE visible
27 Jan 4.9 18:48:49 20° N 18:48:49 20° N 18:50:21 10° N visible
28 Jan 4.6 18:11:25 20° NNE 18:11:25 20° NNE 18:13:14 10° N visible
28 Jan 5.8 19:51:36 12° NW 19:51:36 12° NW 19:52:06 10° NNW visible
29 Jan 4.7 17:34:00 16° NNE 17:34:00 16° NNE 17:35:38 10° NNE visible
29 Jan 5.1 19:14:11 20° NNW 19:14:11 20° NNW 19:15:43 10° NNW visible
30 Jan 4.5 18:36:47 25° N 18:36:47 25° N 18:38:52 10° N visible
31 Jan 4.4 17:59:22 22° NNE 17:59:22 22° NNE 18:01:38 10° N visible
31 Jan 5.4 19:39:33 17° NW 19:39:33 17° NW 19:40:53 10° NNW visible
01 Feb 4.7 17:21:58 14° NE 17:21:58 14° NE 17:23:44 10° NNE visible
01 Feb 4.6 19:02:09 26° NNW 19:02:09 26° NNW 19:04:20 10° NNW visible
02 Feb 4.2 18:24:44 28° NNE 18:24:44 28° NNE 18:27:21 10° N visible
02 Feb 5.7 20:04:55 13° NW 20:04:55 13° NW 20:05:44 10° NW visible
03 Feb 4.4 17:47:19 21° NE 17:47:19 21° NE 17:49:58 10° N visible
03 Feb 4.9 19:27:30 24° NW 19:27:30 24° NW 19:29:35 10° NNW visible
04 Feb 4.8 17:09:54 12° NE 17:09:54 12° NE 17:11:35 10° NNE visible
04 Feb 4.2 18:50:05 33° N 18:50:05 33° N 18:52:53 10° NNW visible
